Starlink 35488

operational
NORAD ID: 66254 Int'l Des: 2025-245 Owner: SPXS Country: US Constellation: starlink
LEOCIRCULAR

关于 Starlink 35488

正在加载描述...

实时位置

正在加载3D地球...

即将过境

高度历史

Altitude vs Time

uPlot chart will show altitude changes over time

两行轨道根数

1 66254U 25245W 25348.91668981 .00041310 00000-0 10374-2 0 9997
2 66254 53.1603 318.9147 0001454 93.9021 120.7032 15.39611214 5995
Epoch: Dec 14, 2025 • Age: 19 hours

当前状态

高度 462.3 km
速度 7.63 km/s
星下点 -42.87°S, 69.31°W
发射日期 Oct 29, 2025
运行时间 0.1 years
类型 internet

技术详情

分类 Payload
质量 575.00 kg
干质量 530.00 kg
总质量 575.00 kg
长度 0.30 m
直径 4.10 m
跨度 29.00 m
形状 Box + pan
制造商 SPXS
平台类型 Starlink V2MO
阶段状态 In Orbit
所有者/国家 SPXS/US

大型星座

Loading constellations...